Voltar ao catálogo

FENG YUN 3H

AtivoMeteoSSO
NORAD 65815·PAYLOAD·🇨🇳 China
Este nome de satélite ainda não foi confirmado por fontes oficiais.

Lançado Sep 26, 2025 de Jiuquan Satellite Launch Center

Loading…

Próximas Passagens (próximas 24 horas)

TLE

AtualizadoSource: Space-Track

Época: Sep 14, 2026, 14:28 UTC

1 65815U 25219A   26257.60321440  .00000028  00000-0  33535-4 0  9999
2 65815  98.6815 196.6490 0001320 101.8203 258.3122 14.19932724 50077

Acompanhe FENG YUN 3H em tempo real com AllMySat

Download on the App Store